| time (UTC) | temp C | wind direction | speed KPH | gust KPH | rain 1hr cm | rain 24hr cm | rain mn cm | humidity % | barometer mb |
| 20260506081003 | 15 | 79 | 0.0 | 4.8 | 0.00 | 0.10 | 0.00 | 79 | 1009.5 |
| 20260506080503 | 16 | 65 | 0.0 | 4.8 | 0.00 | 0.10 | 0.00 | 79 | 1009.6 |
| 20260506073504 | 16 | 102 | 0.0 | 3.2 | 0.00 | 0.10 | 0.00 | 79 | 1009.8 |
| 20260506073003 | 16 | 102 | 0.0 | 3.2 | 0.00 | 0.10 | 0.00 | 79 | 1009.8 |
| 20260506072503 | 16 | 108 | 0.0 | 3.2 | 0.00 | 0.10 | 0.00 | 80 | 1009.7 |
| 20260506072003 | 16 | 94 | 0.0 | 3.2 | 0.00 | 0.10 | 0.00 | 80 | 1009.7 |
| 20260506071503 | 16 | 88 | 0.0 | 1.6 | 0.00 | 0.10 | 0.00 | 80 | 1009.8 |
| 20260506071003 | 16 | 81 | 0.0 | 3.2 | 0.00 | 0.10 | 0.00 | 80 | 1009.7 |
| 20260506070503 | 16 | 86 | 0.0 | 3.2 | 0.00 | 0.10 | 0.00 | 80 | 1009.7 |
| 20260506062504 | 17 | 356 | 0.0 | 3.2 | 0.00 | 0.10 | 0.00 | 80 | 1009.5 |
| 20260506062004 | 17 | 326 | 0.0 | 1.6 | 0.00 | 0.10 | 0.00 | 80 | 1009.5 |
| 20260506061503 | 17 | 348 | 0.0 | 4.8 | 0.00 | 0.10 | 0.00 | 80 | 1009.4 |
| 20260506061004 | 17 | 301 | 0.0 | 4.8 | 0.00 | 0.10 | 0.00 | 80 | 1009.5 |
| 20260506060503 | 17 | 243 | 0.0 | 4.8 | 0.00 | 0.10 | 0.00 | 80 | 1009.4 |
| 20260506051004 | 19 | 258 | 0.0 | 3.2 | 0.00 | 0.10 | 0.00 | 79 | 1009.1 |
| 20260506050503 | 19 | 287 | 0.0 | 1.6 | 0.00 | 0.10 | 0.00 | 79 | 1009.2 |
| 20260506045003 | 20 | 90 | 0.0 | 4.8 | 0.00 | 0.10 | 0.10 | 79 | 1009.1 |
| 20260506044501 | 20 | 227 | 0.0 | 4.8 | 0.00 | 0.10 | 0.10 | 79 | 1009.0 |
| 20260506043002 | 20 | 39 | 0.0 | 3.2 | 0.00 | 0.10 | 0.10 | 79 | 1008.7 |
| 20260506042501 | 21 | 42 | 0.0 | 3.2 | 0.00 | 0.10 | 0.10 | 79 | 1008.8 |
| 20260506042001 | 21 | 18 | 0.0 | 4.8 | 0.00 | 0.10 | 0.10 | 79 | 1008.6 |
| 20260506041501 | 21 | 23 | 0.0 | 4.8 | 0.00 | 0.10 | 0.10 | 79 | 1008.5 |
| 20260506040501 | 21 | 22 | 0.0 | 1.6 | 0.00 | 0.10 | 0.10 | 79 | 1008.5 |
| 20260506040001 | 21 | 23 | 0.0 | 3.2 | 0.00 | 0.10 | 0.10 | 79 | 1008.5 |
| 20260506035501 | 21 | 15 | 0.0 | 3.2 | 0.00 | 0.10 | 0.10 | 78 | 1008.5 |
| 20260506035001 | 21 | 28 | 1.6 | 9.7 | 0.00 | 0.10 | 0.10 | 78 | 1008.4 |
| 20260506034501 | 21 | 48 | 0.0 | 9.7 | 0.00 | 0.10 | 0.10 | 78 | 1008.3 |
| 20260506034001 | 22 | 51 | 0.0 | 1.6 | 0.00 | 0.10 | 0.10 | 78 | 1008.2 |
| 20260506033501 | 22 | 47 | 0.0 | 4.8 | 0.00 | 0.10 | 0.10 | 79 | 1008.1 |
| 20260506033001 | 22 | 50 | 0.0 | 4.8 | 0.00 | 0.10 | 0.10 | 79 | 1008.2 |
| 20260506032502 | 22 | 67 | 0.0 | 4.8 | 0.00 | 0.10 | 0.10 | 79 | 1008.0 |
| 20260506032001 | 22 | 44 | 1.6 | 4.8 | 0.00 | 0.10 | 0.10 | 78 | 1008.0 |
| 20260506031501 | 22 | 29 | 1.6 | 4.8 | 0.00 | 0.10 | 0.10 | 78 | 1008.1 |
| 20260506031001 | 23 | 29 | 1.6 | 4.8 | 0.00 | 0.10 | 0.10 | 78 | 1007.9 |
| 20260506030501 | 23 | 61 | 1.6 | 3.2 | 0.00 | 0.10 | 0.10 | 79 | 1007.7 |
| 20260506030002 | 23 | 94 | 0.0 | 3.2 | 0.00 | 0.10 | 0.10 | 79 | 1007.5 |
| 20260506025001 | 22 | 87 | 0.0 | 3.2 | 0.00 | 0.10 | 0.10 | 80 | 1007.2 |
| 20260506024502 | 22 | 100 | 0.0 | 3.2 | 0.00 | 0.10 | 0.10 | 81 | 1007.2 |
| 20260506024001 | 22 | 77 | 0.0 | 1.6 | 0.00 | 0.10 | 0.10 | 81 | 1006.7 |
| 20260506023502 | 22 | 12 | 0.0 | 1.6 | 0.00 | 0.10 | 0.10 | 82 | 1006.5 |
| 20260506023001 | 22 | 12 | 0.0 | 1.6 | 0.00 | 0.10 | 0.10 | 82 | 1006.4 |
| 20260506022502 | 22 | 348 | 0.0 | 1.6 | 0.00 | 0.10 | 0.10 | 84 | 1006.2 |
| 20260506022001 | 22 | 71 | 0.0 | 1.6 | 0.00 | 0.10 | 0.10 | 83 | 1006.1 |
| 20260506021502 | 22 | 129 | 0.0 | 3.2 | 0.00 | 0.10 | 0.10 | 84 | 1006.1 |
| 20260506021001 | 22 | 130 | 0.0 | 3.2 | 0.00 | 0.10 | 0.10 | 83 | 1006.2 |
| 20260506020501 | 22 | 130 | 0.0 | 1.6 | 0.00 | 0.10 | 0.10 | 83 | 1006.2 |
| 20260506015501 | 23 | 131 | 0.0 | 3.2 | 0.00 | 0.10 | 0.10 | 83 | 1006.1 |
| 20260506015001 | 23 | 132 | 0.0 | 4.8 | 0.00 | 0.10 | 0.10 | 85 | 1005.9 |
| 20260506014501 | 24 | 136 | 0.0 | 4.8 | 0.00 | 0.10 | 0.10 | 82 | 1005.5 |
| 20260506014002 | 25 | 208 | 0.0 | 1.6 | 0.00 | 0.10 | 0.10 | 82 | 1005.6 |
| 20260506013502 | 25 | 208 | 0.0 | 1.6 | 0.05 | 0.10 | 0.10 | 86 | 1005.6 |
| 20260506013001 | 26 | 208 | 0.0 | 1.6 | 0.05 | 0.10 | 0.10 | 86 | 1005.8 |
| 20260506012502 | 26 | 208 | 0.0 | 3.2 | 0.08 | 0.10 | 0.10 | 86 | 1005.9 |
| 20260506012002 | 26 | 208 | 0.0 | 3.2 | 0.10 | 0.10 | 0.10 | 85 | 1005.5 |
| 20260506011502 | 26 | 198 | 3.2 | 14.5 | 0.10 | 0.10 | 0.10 | 84 | 1005.1 |
| 20260506011001 | 26 | 195 | 3.2 | 14.5 | 0.10 | 0.10 | 0.10 | 85 | 1005.1 |
| 20260506010502 | 26 | 193 | 1.6 | 9.7 | 0.10 | 0.10 | 0.10 | 85 | 1004.7 |
| 20260506005501 | 26 | 192 | 1.6 | 12.9 | 0.10 | 0.10 | 0.10 | 85 | 1005.0 |
| 20260506005002 | 26 | 226 | 0.0 | 3.2 | 0.10 | 0.10 | 0.10 | 86 | 1005.1 |
| 20260506004501 | 26 | 228 | 0.0 | 3.2 | 0.10 | 0.10 | 0.10 | 85 | 1005.0 |
| 20260506004001 | 26 | 228 | 0.0 | 6.4 | 0.10 | 0.10 | 0.10 | 84 | 1005.1 |
| 20260506003001 | 27 | 255 | 1.6 | 8.0 | 0.05 | 0.05 | 0.05 | 82 | 1005.0 |
| 20260506002502 | 27 | 239 | 3.2 | 8.0 | 0.03 | 0.03 | 0.03 | 80 | 1005.0 |
| 20260506002001 | 27 | 194 | 3.2 | 12.9 | 0.00 | 0.00 | 0.00 | 80 | 1004.8 |
| 20260506001502 | 27 | 185 | 4.8 | 14.5 | 0.00 | 0.00 | 0.00 | 79 | 1004.8 |
| 20260506001002 | 28 | 183 | 4.8 | 14.5 | 0.00 | 0.00 | 0.00 | 79 | 1004.7 |
| 20260506000501 | 28 | 174 | 4.8 | 14.5 | 0.00 | 0.00 | 0.00 | 76 | 1004.2 |
| 20260506000002 | 28 | 169 | 4.8 | 11.3 | 0.00 | 0.00 | 0.00 | 76 | 1004.2 |
| 20260505235501 | 28 | 173 | 6.4 | 17.7 | 0.00 | 0.00 | 0.00 | 76 | 1003.9 |
| 20260505235001 | 28 | 174 | 6.4 | 19.3 | 0.00 | 0.00 | 0.00 | 75 | 1003.8 |
| 20260505234502 | 28 | 186 | 8.0 | 19.3 | 0.00 | 0.00 | 0.00 | 75 | 1004.0 |
| 20260505233002 | 30 | 181 | 8.0 | 19.3 | 0.00 | 0.00 | 0.00 | 73 | 1004.2 |
| 20260505232501 | 30 | 178 | 6.4 | 19.3 | 0.00 | 0.00 | 0.00 | 72 | 1004.0 |
| 20260505231502 | 30 | 185 | 4.8 | 14.5 | 0.00 | 0.00 | 0.00 | 71 | 1004.1 |
| 20260505231001 | 31 | 181 | 6.4 | 14.5 | 0.00 | 0.00 | 0.00 | 70 | 1004.1 |
| 20260505230502 | 31 | 187 | 8.0 | 16.1 | 0.00 | 0.00 | 0.00 | 69 | 1003.9 |
| 20260505230002 | 31 | 193 | 6.4 | 16.1 | 0.00 | 0.00 | 0.00 | 69 | 1003.9 |
| 20260505225501 | 31 | 186 | 6.4 | 17.7 | 0.00 | 0.00 | 0.00 | 69 | 1003.7 |
| 20260505225002 | 31 | 173 | 6.4 | 17.7 | 0.00 | 0.00 | 0.00 | 69 | 1003.9 |
| 20260505224502 | 31 | 172 | 6.4 | 19.3 | 0.00 | 0.00 | 0.00 | 69 | 1003.9 |
| 20260505224002 | 31 | 171 | 8.0 | 19.3 | 0.00 | 0.00 | 0.00 | 69 | 1003.7 |
| 20260505222502 | 31 | 190 | 6.4 | 20.9 | 0.00 | 0.00 | 0.00 | 69 | 1003.8 |
| 20260505222002 | 31 | 184 | 6.4 | 20.9 | 0.00 | 0.00 | 0.00 | 69 | 1003.8 |
| 20260505221502 | 31 | 183 | 8.0 | 20.9 | 0.00 | 0.00 | 0.00 | 68 | 1003.8 |
| 20260505221002 | 31 | 178 | 8.0 | 19.3 | 0.00 | 0.00 | 0.00 | 68 | 1003.6 |
| 20260505220502 | 31 | 183 | 6.4 | 17.7 | 0.00 | 0.00 | 0.00 | 68 | 1003.6 |
| 20260505220002 | 32 | 195 | 6.4 | 19.3 | 0.00 | 0.00 | 0.00 | 67 | 1003.7 |
| 20260505215502 | 31 | 191 | 8.0 | 19.3 | 0.00 | 0.00 | 0.00 | 67 | 1003.7 |
| 20260505215001 | 32 | 192 | 6.4 | 16.1 | 0.00 | 0.00 | 0.00 | 66 | 1003.7 |
| 20260505214502 | 32 | 195 | 6.4 | 16.1 | 0.00 | 0.00 | 0.00 | 67 | 1003.7 |
| 20260505214002 | 31 | 190 | 6.4 | 16.1 | 0.00 | 0.00 | 0.00 | 68 | 1003.8 |
| 20260505213501 | 31 | 179 | 6.4 | 17.7 | 0.00 | 0.00 | 0.00 | 67 | 1003.8 |
| 20260505213002 | 31 | 178 | 8.0 | 17.7 | 0.00 | 0.00 | 0.00 | 67 | 1003.8 |
| 20260505212002 | 31 | 196 | 8.0 | 20.9 | 0.00 | 0.00 | 0.00 | 67 | 1004.0 |
| 20260505211502 | 31 | 190 | 6.4 | 17.7 | 0.00 | 0.00 | 0.00 | 66 | 1004.0 |
| 20260505210002 | 32 | 181 | 6.4 | 14.5 | 0.00 | 0.00 | 0.00 | 66 | 1004.1 |
| 20260505205502 | 32 | 195 | 6.4 | 14.5 | 0.00 | 0.00 | 0.00 | 66 | 1004.2 |
| 20260505205003 | 32 | 203 | 6.4 | 14.5 | 0.00 | 0.00 | 0.00 | 64 | 1004.3 |
| 20260505204502 | 32 | 198 | 6.4 | 14.5 | 0.00 | 0.00 | 0.00 | 65 | 1004.4 |
| 20260505204001 | 31 | 204 | 6.4 | 14.5 | 0.00 | 0.00 | 0.00 | 67 | 1004.4 |
| 20260505203502 | 31 | 207 | 4.8 | 14.5 | 0.00 | 0.00 | 0.00 | 66 | 1004.4 |
| 20260505203002 | 31 | 202 | 6.4 | 20.9 | 0.00 | 0.00 | 0.00 | 69 | 1004.5 |
| 20260505202502 | 31 | 197 | 8.0 | 20.9 | 0.00 | 0.00 | 0.00 | 67 | 1004.5 |
| 20260505201501 | 31 | 199 | 8.0 | 20.9 | 0.00 | 0.00 | 0.00 | 66 | 1004.6 |
| 20260505201002 | 31 | 194 | 6.4 | 20.9 | 0.00 | 0.00 | 0.00 | 67 | 1004.6 |
| 20260505200502 | 31 | 189 | 8.0 | 16.1 | 0.00 | 0.00 | 0.00 | 68 | 1004.6 |
| 20260505200002 | 31 | 189 | 8.0 | 20.9 | 0.00 | 0.00 | 0.00 | 69 | 1004.7 |
| 20260505195502 | 31 | 199 | 6.4 | 20.9 | 0.00 | 0.00 | 0.00 | 67 | 1004.7 |
| 20260505195001 | 31 | 206 | 6.4 | 16.1 | 0.00 | 0.00 | 0.00 | 68 | 1004.6 |
| 20260505194502 | 30 | 193 | 8.0 | 25.7 | 0.00 | 0.00 | 0.00 | 70 | 1004.7 |
| 20260505194002 | 30 | 198 | 8.0 | 25.7 | 0.00 | 0.00 | 0.00 | 69 | 1004.7 |
| 20260505193502 | 30 | 198 | 8.0 | 24.1 | 0.00 | 0.00 | 0.00 | 70 | 1004.7 |
| 20260505193002 | 30 | 190 | 9.7 | 24.1 | 0.00 | 0.00 | 0.00 | 70 | 1004.8 |
| 20260505191502 | 29 | 194 | 9.7 | 25.7 | 0.00 | 0.00 | 0.00 | 70 | 1004.9 |
| 20260505191002 | 29 | 192 | 9.7 | 25.7 | 0.00 | 0.00 | 0.00 | 71 | 1004.9 |
| 20260505190502 | 29 | 194 | 8.0 | 22.5 | 0.00 | 0.00 | 0.00 | 71 | 1004.9 |
| 20260505190003 | 29 | 191 | 6.4 | 25.7 | 0.00 | 0.00 | 0.00 | 73 | 1005.0 |
| 20260505185502 | 28 | 191 | 8.0 | 25.7 | 0.00 | 0.00 | 0.00 | 72 | 1004.9 |
| 20260505185002 | 28 | 194 | 8.0 | 22.5 | 0.00 | 0.00 | 0.00 | 72 | 1005.1 |
| 20260505184502 | 28 | 198 | 8.0 | 19.3 | 0.00 | 0.00 | 0.00 | 73 | 1005.1 |
| 20260505184002 | 28 | 198 | 8.0 | 19.3 | 0.00 | 0.00 | 0.00 | 72 | 1005.1 |
| 20260505183503 | 28 | 194 | 8.0 | 19.3 | 0.00 | 0.00 | 0.00 | 72 | 1005.2 |
| 20260505182502 | 28 | 186 | 6.4 | 16.1 | 0.00 | 0.00 | 0.00 | 73 | 1005.1 |
| 20260505182003 | 28 | 189 | 6.4 | 17.7 | 0.00 | 0.00 | 0.00 | 73 | 1005.2 |
| 20260505181502 | 28 | 189 | 8.0 | 20.9 | 0.00 | 0.00 | 0.00 | 73 | 1005.2 |
| 20260505181002 | 28 | 187 | 8.0 | 22.5 | 0.00 | 0.00 | 0.00 | 72 | 1005.2 |
| 20260505180002 | 28 | 198 | 8.0 | 27.4 | 0.00 | 0.00 | 0.00 | 70 | 1005.3 |
| 20260505175502 | 29 | 193 | 6.4 | 12.9 | 0.00 | 0.00 | 0.00 | 70 | 1005.3 |
| 20260505175002 | 29 | 191 | 6.4 | 20.9 | 0.00 | 0.00 | 0.00 | 71 | 1005.3 |
| 20260505174502 | 28 | 192 | 8.0 | 20.9 | 0.00 | 0.00 | 0.00 | 72 | 1005.4 |
| 20260505174002 | 28 | 198 | 8.0 | 20.9 | 0.00 | 0.00 | 0.00 | 72 | 1005.3 |
| 20260505173503 | 28 | 203 | 8.0 | 20.9 | 0.00 | 0.00 | 0.00 | 72 | 1005.2 |
| 20260505173003 | 28 | 200 | 6.4 | 19.3 | 0.00 | 0.00 | 0.00 | 72 | 1005.3 |
| 20260505172502 | 28 | 198 | 4.8 | 20.9 | 0.00 | 0.00 | 0.00 | 72 | 1005.2 |
| 20260505171003 | 27 | 195 | 8.0 | 19.3 | 0.00 | 0.00 | 0.00 | 73 | 1005.4 |
| 20260505170502 | 27 | 200 | 8.0 | 27.4 | 0.00 | 0.00 | 0.00 | 75 | 1005.5 |
| 20260505170002 | 27 | 201 | 8.0 | 27.4 | 0.00 | 0.00 | 0.00 | 75 | 1005.5 |
| 20260505165002 | 27 | 199 | 9.7 | 20.9 | 0.00 | 0.00 | 0.00 | 75 | 1005.4 |
| 20260505164503 | 27 | 197 | 8.0 | 19.3 | 0.00 | 0.00 | 0.00 | 75 | 1005.5 |
| 20260505164002 | 27 | 213 | 8.0 | 17.7 | 0.00 | 0.00 | 0.00 | 75 | 1005.8 |
| 20260505163502 | 27 | 208 | 8.0 | 19.3 | 0.00 | 0.00 | 0.00 | 75 | 1005.5 |
| 20260505163002 | 27 | 193 | 8.0 | 20.9 | 0.00 | 0.00 | 0.00 | 77 | 1005.3 |
| 20260505162503 | 26 | 187 | 9.7 | 24.1 | 0.00 | 0.00 | 0.00 | 76 | 1005.3 |
| 20260505161503 | 26 | 193 | 11.3 | 25.7 | 0.00 | 0.00 | 0.00 | 77 | 1005.2 |
| 20260505161002 | 26 | 190 | 9.7 | 25.7 | 0.00 | 0.00 | 0.00 | 77 | 1005.2 |
| 20260505160502 | 26 | 192 | 9.7 | 22.5 | 0.00 | 0.00 | 0.00 | 78 | 1005.2 |
| 20260505153003 | 25 | 207 | 8.0 | 20.9 | 0.00 | 0.00 | 0.00 | 80 | 1005.4 |
| 20260505152502 | 25 | 200 | 6.4 | 17.7 | 0.00 | 0.00 | 0.00 | 80 | 1005.5 |
| 20260505152003 | 25 | 194 | 9.7 | 27.4 | 0.00 | 0.00 | 0.00 | 81 | 1005.5 |
| 20260505151503 | 24 | 197 | 11.3 | 27.4 | 0.00 | 0.00 | 0.00 | 82 | 1005.4 |
| 20260505151002 | 24 | 194 | 11.3 | 24.1 | 0.00 | 0.00 | 0.00 | 82 | 1005.3 |
| 20260505150503 | 23 | 191 | 9.7 | 24.1 | 0.00 | 0.00 | 0.00 | 82 | 1005.3 |
| 20260505125003 | 22 | 193 | 6.4 | 22.5 | 0.00 | 0.00 | 0.00 | 87 | 1005.1 |
| 20260505124503 | 22 | 199 | 4.8 | 14.5 | 0.00 | 0.00 | 0.00 | 87 | 1004.9 |
| 20260505124003 | 22 | 196 | 6.4 | 17.7 | 0.00 | 0.00 | 0.00 | 87 | 1004.7 |
| 20260505123503 | 22 | 191 | 6.4 | 17.7 | 0.00 | 0.00 | 0.00 | 87 | 1004.7 |
| 20260505123003 | 22 | 195 | 6.4 | 17.7 | 0.00 | 0.00 | 0.00 | 87 | 1004.6 |
| 20260505122502 | 22 | 199 | 6.4 | 14.5 | 0.00 | 0.00 | 0.00 | 87 | 1004.7 |
| 20260505122003 | 22 | 198 | 6.4 | 17.7 | 0.00 | 0.00 | 0.00 | 87 | 1004.6 |
| 20260505121503 | 22 | 192 | 8.0 | 20.9 | 0.00 | 0.00 | 0.00 | 87 | 1004.6 |
| 20260505121003 | 22 | 190 | 8.0 | 20.9 | 0.00 | 0.00 | 0.00 | 87 | 1004.6 |
| 20260505120503 | 22 | 192 | 6.4 | 19.3 | 0.00 | 0.00 | 0.00 | 87 | 1004.5 |
| 20260505120004 | 22 | 186 | 8.0 | 19.3 | 0.00 | 0.00 | 0.00 | 87 | 1004.4 |
| 20260505115503 | 22 | 194 | 8.0 | 19.3 | 0.00 | 0.00 | 0.00 | 87 | 1004.4 |
| 20260505115002 | 22 | 200 | 9.7 | 20.9 | 0.00 | 0.00 | 0.00 | 87 | 1004.4 |
| 20260505114503 | 21 | 194 | 8.0 | 20.9 | 0.00 | 0.00 | 0.00 | 87 | 1004.4 |
| 20260505114003 | 21 | 188 | 8.0 | 14.5 | 0.00 | 0.00 | 0.00 | 87 | 1004.3 |
| 20260505112503 | 22 | 183 | 8.0 | 20.9 | 0.00 | 0.00 | 0.00 | 87 | 1004.3 |
| 20260505112003 | 22 | 186 | 8.0 | 19.3 | 0.00 | 0.00 | 0.00 | 87 | 1004.2 |
| 20260505111503 | 21 | 193 | 8.0 | 19.3 | 0.00 | 0.00 | 0.00 | 87 | 1004.3 |
| 20260505111003 | 21 | 198 | 8.0 | 20.9 | 0.00 | 0.00 | 0.00 | 87 | 1004.3 |
| 20260505102003 | 22 | 187 | 8.0 | 22.5 | 0.00 | 0.00 | 0.00 | 86 | 1004.4 |
| 20260505100503 | 22 | 187 | 9.7 | 19.3 | 0.00 | 0.00 | 0.00 | 86 | 1004.4 |
| 20260505100003 | 22 | 183 | 8.0 | 20.9 | 0.00 | 0.00 | 0.00 | 86 | 1004.5 |
| 20260505094503 | 22 | 185 | 9.7 | 20.9 | 0.00 | 0.00 | 0.00 | 86 | 1004.7 |
| 20260505094003 | 22 | 191 | 9.7 | 22.5 | 0.00 | 0.00 | 0.00 | 86 | 1004.7 |
| 20260505093502 | 22 | 192 | 8.0 | 22.5 | 0.00 | 0.00 | 0.00 | 86 | 1004.7 |
| 20260505093004 | 22 | 190 | 8.0 | 22.5 | 0.00 | 0.00 | 0.00 | 86 | 1004.8 |
| 20260505092503 | 22 | 188 | 8.0 | 22.5 | 0.00 | 0.00 | 0.00 | 86 | 1004.8 |
| 20260505092003 | 22 | 192 | 9.7 | 20.9 | 0.00 | 0.00 | 0.00 | 86 | 1004.7 |
| 20260505091503 | 22 | 194 | 11.3 | 27.4 | 0.00 | 0.00 | 0.00 | 86 | 1004.7 |
| 20260505091003 | 22 | 191 | 9.7 | 27.4 | 0.00 | 0.00 | 0.00 | 86 | 1004.8 |
| 20260505090503 | 22 | 195 | 11.3 | 25.7 | 0.00 | 0.00 | 0.00 | 86 | 1004.7 |
| 20260505090003 | 22 | 197 | 11.3 | 24.1 | 0.00 | 0.00 | 0.00 | 86 | 1004.6 |
| 20260505085503 | 22 | 194 | 9.7 | 24.1 | 0.00 | 0.00 | 0.00 | 86 | 1004.6 |
| 20260505085003 | 22 | 194 | 11.3 | 24.1 | 0.00 | 0.00 | 0.00 | 86 | 1004.5 |
| 20260505084503 | 22 | 196 | 9.7 | 24.1 | 0.00 | 0.00 | 0.00 | 86 | 1004.6 |
| 20260505084003 | 22 | 195 | 11.3 | 27.4 | 0.00 | 0.00 | 0.00 | 86 | 1004.6 |
| 20260505083503 | 22 | 193 | 11.3 | 29.0 | 0.00 | 0.00 | 0.00 | 86 | 1004.6 |
| 20260505083003 | 22 | 198 | 9.7 | 29.0 | 0.00 | 0.00 | 0.00 | 86 | 1004.7 |
| 20260505082003 | 21 | 189 | 9.7 | 27.4 | 0.00 | 0.00 | 0.00 | 86 | 1004.7 |
| 20260505081504 | 21 | 190 | 11.3 | 27.4 | 0.00 | 0.00 | 0.00 | 86 | 1004.7 |